This is the latest recevied weather packets stored in our database for station/object VA3VWX-13. If no packets are shown the sender has not sent any weather packets the latest 10 day(s).
| Time | Temp. | Humidity | Pressure | Rain* | Wind** | Luminosity | Snow |
|---|---|---|---|---|---|---|---|
| 1777969413 | 15° C | 76% | 999.1 hPa | 0 mm | - | - | - |
| 1777969120 | 15° C | 76% | 999.2 hPa | 0 mm | - | - | - |
| 1777968827 | 15.56° C | 76% | 999.2 hPa | 0 mm | - | - | - |
| 1777968504 | 15.56° C | 75% | 999.2 hPa | 0 mm | - | - | - |
| 1777968220 | 15.56° C | 75% | 999.3 hPa | 0 mm | - | - | - |
| 1777967907 | 16.11° C | 74% | 999.3 hPa | 0 mm | - | - | - |
| 1777967603 | 16.11° C | 74% | 999.3 hPa | 0 mm | - | - | - |
| 1777967310 | 16.11° C | 74% | 999.3 hPa | 0 mm | - | - | - |
| 1777967016 | 16.11° C | 74% | 999.3 hPa | 0 mm | - | - | - |
| 1777966720 | 16.11° C | 73% | 999.4 hPa | 0 mm | - | - | - |
| 1777966417 | 16.11° C | 74% | 999.5 hPa | 0 mm | - | - | - |
| 1777966105 | 15.56° C | 74% | 999.4 hPa | 0 mm | - | - | - |
| 1777965812 | 15.56° C | 75% | 999.4 hPa | 0 mm | - | - | - |
| 1777965510 | 15° C | 74% | 999.3 hPa | 0 mm | - | - | - |
| 1777965217 | 15.56° C | 73% | 999.2 hPa | 0 mm | - | - | - |
| 1777964903 | 15.56° C | 72% | 999.2 hPa | 0 mm | - | - | - |
| 1777964622 | 16.11° C | 71% | 999.2 hPa | 0 mm | - | - | - |
| 1777964324 | 16.67° C | 71% | 999.2 hPa | 0 mm | - | - | - |
| 1777964016 | 16.67° C | 71% | 999.3 hPa | 0 mm | - | - | - |
| 1777963722 | 16.67° C | 71% | 999.3 hPa | 0 mm | - | - | - |
| 1777963407 | 16.67° C | 70% | 999.5 hPa | 0 mm | - | - | - |
| 1777963105 | 17.22° C | 70% | 999.5 hPa | 0 mm | - | - | - |
| 1777962812 | 17.22° C | 69% | 999.5 hPa | 0 mm | - | - | - |
| 1777962519 | 17.22° C | 69% | 999.6 hPa | 0 mm | - | - | - |
| 1777962222 | 17.22° C | 69% | 999.6 hPa | 0 mm | - | - | - |
* Rain latest hour (hover to see other rain measurements)
** Current wind speed in m/s (hover to see current wind gust speed)